Fargo, ND

9:57 AM CST on December 15, 2019 (GMT -0600)
Hector International

Weather History for KFAR - November, 2019

Change the Weather History Date:

Sunday, November 17, 2019

  Actual Average Record
Temperature  
Mean Temperature 34 °F 28 °F  
Max Temperature 37 °F 36 °F 73 °F (1953)
Min Temperature 30 °F 19 °F -9 °F (1891)
Degree Days  
Heating Degree Days 32 37  
Month to date heating degree days 682 548  
Since 1 July heating degree days 1617 1424  
Cooling Degree Days 0 0  
Month to date cooling degree days 0 0  
Year to date cooling degree days 527 551  
Moisture  
Dew Point 27 °F    
Average Humidity 79    
Maximum Humidity 88    
Minimum Humidity 72    
Precipitation  
Precipitation 0.00 in 0.04 in 1.25 in (1952)
Month to date precipitation 0.23 0.62  
Year to date precipitation 28.71 21.37  
Snow  
Snow 0.00 in 0.30 in 8.50 in (1996)
Month to date snowfall 1.7 3.4  
Since 1 July snowfall 6.2 4.1  
Since 1 September snowfall 6.2 4.1  
Snow Depth 0.00 in    
Sea Level Pressure  
Sea Level Pressure 29.93 in    
Wind  
Wind Speed 10 mph ()    
Max Wind Speed 17 mph    
Max Gust Speed 23 mph    
Visibility 10.0 miles    
Events      
T = Trace of Precipitation, MM = Missing Value Source: Averaged Metar Reports

Daily Weather History Graph

Daily Weather History Graph

Search for Another Location

Airport or City:

Astronomy

Nov. 17, 2019 Rise Set
Actual Time 7:32 AM CST 4:50 PM CST
Civil Twilight 6:59 AM CST 5:24 PM CST
Nautical Twilight 6:22 AM CST 6:01 PM CST
Astronomical Twilight 5:46 AM CST 6:37 PM CST
Moon 9:24 PM CST (11/17) 12:25 PM CST (11/17)
Length of Visible Light 10h 24m
Length of Day
9h 17m
Waning Gibbous, 73% of the Moon is Illuminated
Nov 17
Waning Gibbous
Nov 19
Last Quarter
Nov 26
New
Dec 4
First Quarter
Dec 11
Full

Hourly Weather History & Observations

Time (CST) Temp. Windchill Dew Point Humidity Pressure Visibility Wind Dir Wind Speed Gust Speed Precip Events Conditions
12:53 AM 36.0 °F 28.0 °F 28.9 °F 76% 29.94 in 10.0 mi WNW 11.5 mph - N/A   Overcast
1:51 AM 35.6 °F 26.2 °F 28.4 °F 75% 29.92 in 10.0 mi WNW 15.0 mph - N/A   Overcast
1:53 AM 35.1 °F 25.2 °F 28.0 °F 76% 29.95 in 10.0 mi WNW 16.1 mph - N/A   Overcast
2:20 AM 35.1 °F 25.9 °F 28.0 °F 76% 29.93 in 10.0 mi WNW 13.8 mph - N/A   Overcast
2:36 AM 35.1 °F 25.2 °F 28.0 °F 76% 29.93 in 10.0 mi WNW 16.1 mph - N/A   Overcast
2:53 AM 35.1 °F 25.9 °F 27.0 °F 72% 29.96 in 10.0 mi NW 13.8 mph - N/A   Overcast
3:50 AM 33.8 °F 24.8 °F 26.6 °F 75% 29.93 in 10.0 mi NNW 12.7 mph - N/A   Overcast
3:53 AM 34.0 °F 23.8 °F 27.0 °F 75% 29.96 in 10.0 mi NW 16.1 mph - N/A   Overcast
4:53 AM 33.1 °F 23.9 °F 26.1 °F 75% 29.98 in 10.0 mi NW 12.7 mph - N/A   Overcast
5:53 AM 32.0 °F 21.2 °F 26.1 °F 79% 29.99 in 10.0 mi NW 16.1 mph - N/A   Overcast
6:27 AM 32.0 °F 23.0 °F 25.0 °F 75% 29.97 in 10.0 mi NW 11.5 mph - N/A   Overcast
6:53 AM 30.0 °F 19.1 °F 23.0 °F 75% 30.00 in 10.0 mi NW 15.0 mph - N/A   Overcast
7:12 AM 30.0 °F 20.0 °F 24.1 °F 79% 29.97 in 10.0 mi NW 12.7 mph - N/A   Overcast
7:53 AM 30.9 °F 20.7 °F 24.1 °F 76% 30.01 in 10.0 mi NW 13.8 mph - N/A   Overcast
8:53 AM 30.9 °F 21.7 °F 25.0 °F 79% 30.01 in 10.0 mi NW 11.5 mph - N/A   Overcast
9:53 AM 32.0 °F 23.0 °F 25.0 °F 75% 30.01 in 10.0 mi NW 11.5 mph - N/A   Overcast
10:53 AM 32.0 °F 23.0 °F 26.1 °F 79% 30.01 in 10.0 mi NW 11.5 mph - N/A   Overcast
11:53 AM 32.0 °F 24.8 °F 26.1 °F 79% 29.99 in 10.0 mi NNW 8.1 mph - N/A   Overcast
12:53 PM 32.0 °F 25.6 °F 27.0 °F 82% 29.97 in 10.0 mi WNW 6.9 mph - N/A   Overcast
1:53 PM 33.1 °F 28.7 °F 27.0 °F 78% 29.96 in 10.0 mi NNW 4.6 mph - N/A   Overcast
2:53 PM 33.1 °F - 27.0 °F 78% 29.94 in 10.0 mi Calm Calm - N/A   Overcast
3:22 PM 32.0 °F - 27.0 °F 82% 29.89 in 10.0 mi Calm Calm - N/A   Overcast
3:53 PM 33.1 °F - 27.0 °F 78% 29.91 in 10.0 mi Calm Calm - N/A   Overcast
4:53 PM 32.0 °F - 28.0 °F 85% 29.90 in 10.0 mi Calm Calm - N/A   Overcast
5:53 PM 32.0 °F 25.6 °F 28.0 °F 85% 29.90 in 10.0 mi SE 6.9 mph - N/A   Overcast
6:53 PM 32.0 °F 24.8 °F 28.0 °F 85% 29.88 in 10.0 mi ESE 8.1 mph - N/A   Overcast
8:53 PM 32.0 °F 24.8 °F 28.0 °F 85% 29.83 in 10.0 mi SSE 8.1 mph - N/A   Overcast
9:53 PM 32.0 °F 24.2 °F 28.9 °F 88% 29.82 in 10.0 mi SSE 9.2 mph - N/A   Overcast
10:50 PM 32.0 °F 24.2 °F 28.4 °F 87% 29.76 in 10.0 mi SSE 9.2 mph - N/A   Mostly Cloudy
10:53 PM 32.0 °F 24.2 °F 28.9 °F 88% 29.79 in 10.0 mi SSE 9.2 mph - N/A   Mostly Cloudy
11:53 PM 32.0 °F 23.0 °F 28.9 °F 88% 29.77 in 10.0 mi SSE 11.5 mph - N/A   Mostly Cloudy